This demonstration page uses our WeatherBlox Daily Observations layout. Learn more.

Left ArrowRight Arrow

44.8408, -93.29828

Hourly Observations for April 16, 2022

Temp ( °F °C ) Dew Point ( °F °C ) Humidity (%) Winds ( mph kmh ) Pressure ( in mb ) Visibility ( mi km ) Precip ( " mm )
12:53 am 00:53 Cloudy 27 -2.8 16 -8.9 63 63 NW 15 24 30.13 1020 10 16 0.00 0.00
1:53 am 01:53 Cloudy 27 -2.8 16 -8.9 63 63 NW 17 28 30.14 1021 10 16 0.00 0.00
2:53 am 02:53 Cloudy 27 -2.8 17 -8.3 66 66 WNW 14 22 30.15 1021 10 16 0.00 0.00
3:53 am 03:53 Cloudy 27 -2.8 17 -8.3 66 66 WNW 15 24 30.16 1021 10 16 0.00 0.00
4:53 am 04:53 Cloudy 26 -3.3 17 -8.3 69 69 W 14 22 30.17 1022 10 16 0.00 0.00
5:53 am 05:53 Cloudy 26 -3.3 16 -8.9 66 66 NW 15 24 30.18 1022 10 16 0.00 0.00
6:53 am 06:53 Cloudy 25 -3.9 16 -8.9 69 69 WNW 13 20 30.19 1023 10 16 0.00 0.00
7:53 am 07:53 Cloudy 26 -3.3 17 -8.3 69 69 WNW 10 17 30.21 1023 10 16 0.00 0.00
8:53 am 08:53 Cloudy 28 -2.2 16 -8.9 60 60 NW 16 26 30.22 1023 10 16 0.00 0.00
9:53 am 09:53 Mostly Cloudy 30 -1.1 16 -8.9 56 56 NW 16 26 30.23 1024 10 16 0.00 0.00
10:26 am 10:26 Mostly Cloudy 32 0 15 -9.4 50 50 NW 15 24 30.26 1025 10 16 0.00 0.00
10:53 am 10:53 Mostly Sunny 33 0.6 15 -9.4 47 47 NW 14 22 30.24 1024 10 16 0.00 0.00
11:53 am 11:53 Mostly Sunny 35 1.7 13 -10.6 40 40 WNW 12 19 30.25 1024 10 16 0.00 0.00
12:53 pm 12:53 Mostly Sunny 37 2.8 13 -10.6 37 37 NW 15 24 30.24 1024 10 16 0.00 0.00
1:53 pm 13:53 Sunny 39 3.9 11 -11.7 31 31 WNW 12 19 30.23 1024 10 16 0.00 0.00
2:53 pm 14:53 Sunny 40 4.4 11 -11.7 30 30 NW 14 22 30.23 1024 10 16 0.00 0.00
3:53 pm 15:53 Mostly Sunny 41 5 12 -11.1 30 30 NW 20 31 30.22 1023 10 16 0.00 0.00
4:53 pm 16:53 Mostly Sunny 42 5.6 12 -11.1 29 29 NW 15 24 30.22 1023 10 16 0.00 0.00
5:53 pm 17:53 Mostly Sunny 41 5 13 -10.6 32 32 NW 13 20 30.22 1023 10 16 0.00 0.00
6:53 pm 18:53 Mostly Sunny 40 4.4 12 -11.1 32 32 NNW 13 20 30.22 1023 10 16 0.00 0.00
7:53 pm 19:53 Sunny 37 2.8 11 -11.7 34 34 NW 13 20 30.24 1024 10 16 0.00 0.00
8:53 pm 20:53 Clear 34 1.1 13 -10.6 42 42 NW 7 11 30.26 1025 10 16 0.00 0.00
9:53 pm 21:53 Clear 34 1.1 13 -10.6 42 42 NW 5 7 30.29 1026 10 16 0.00 0.00
10:53 pm 22:53 Clear 32 0 14 -10 47 47 NW 5 7 30.29 1026 10 16 0.00 0.00
11:53 pm 23:53 Clear 31 -0.6 15 -9.4 52 52 NW 5 7 30.30 1026 10 16 0.00 0.00

Powered by AerisWeather